Regional Weather Roundup
Issued by NWS

Home | Current Version | Previous Version | Graphics & Text | Print | Product List | Glossary Off
Versions: 1 2 3 4 5 6 7 8 9 10 11 12 13 14 15 16 17 18 19 20 21 22 23 24 25 26 27 28 29 30 31 32 33 34 35 36 37 38 39 40 41 42 43 44 45 46 47 48 49 50

000
ASUS43 KTOP 261759
RWRKS

WEATHER ROUNDUP FOR KANSAS
NATIONAL WEATHER SERVICE GOODLAND KS
100 PM CDT TUE MAY 26 2015

NOTE:  "FAIR" INDICATES FEW OR NO CLOUDS BELOW 12,000 FEET WITH NO
SIGNIFICANT WEATHER AND/OR OBSTRUCTIONS TO VISIBILITY.

KSZ001>006-013>018-027>032-041>047-261900-
NORTHWEST KANSAS

CITY           SKY/WX    TMP DP  RH WIND       PRES   REMARKS
GOODLAND       MOSUNNY   68  52  56 N9G17     30.02S
6HR MIN TEMP:  46; 6HR MAX TEMP:  69;

HAYS           MOSUNNY   72  54  53 W15       29.95F
HILL CITY      PTSUNNY   70  55  59 NW12      29.97S
6HR MIN TEMP:  53; 6HR MAX TEMP:  71;

RUSSELL        SUNNY     73  56  54 NW14G21   29.93S
6HR MIN TEMP:  58; 6HR MAX TEMP:  73;

$$

KSZ061>065-074>080-084>089-261900-
SOUTHWEST KANSAS

CITY           SKY/WX    TMP DP  RH WIND       PRES   REMARKS
DODGE CITY     SUNNY     73  50  44 VRB5      29.99F
6HR MIN TEMP:  53; 6HR MAX TEMP:  74;

ELKHART          N/A     72  51  47 NE6         N/A
GARDEN CITY    SUNNY     72  50  45 N8        29.99F
6HR MIN TEMP:  48; 6HR MAX TEMP:  72;

GREAT BEND     MOSUNNY   72  55  56 NW12G20   29.95S
LIBERAL        SUNNY     72  54  53 NE7       30.01S
$$

KSZ066>073-081>083-090>101-261900-
SOUTHEAST KANSAS

CITY           SKY/WX    TMP DP  RH WIND       PRES   REMARKS
CHANUTE        MOSUNNY   76  62  62 SW15      29.94S
6HR MIN TEMP:  61; 6HR MAX TEMP:  76;

HUTCHINSON     SUNNY     77  55  46 W14       29.94S
6HR MIN TEMP:  60; 6HR MAX TEMP:  77;

NEWTON         SUNNY     75  55  50 W15       29.96R
PARSONS        SUNNY     76  62  62 SW14      29.97R
6HR MIN TEMP:  62; 6HR MAX TEMP:  76;

WICHITA INTL   MOSUNNY   78  57  48 W16       29.93S
6HR MIN TEMP:  56; 6HR MAX TEMP:  78;

WICHITA JABRA  MOSUNNY   78  58  49 W14       29.93S
6HR MIN TEMP:  57; 6HR MAX TEMP:  78;

WINFIELD       SUNNY     76  60  57 SW13      29.96S
6HR MIN TEMP:  57; 6HR MAX TEMP:  77;

$$

KSZ007>012-019>026-033>040-048>060-102>105-261900-
NORTHEAST KANSAS

CITY           SKY/WX    TMP DP  RH WIND       PRES   REMARKS
CONCORDIA      PTSUNNY   70  57  63 W16G25    29.90S
6HR MIN TEMP:  57; 6HR MAX TEMP:  70; 6HR PCP:  0.01;

EMPORIA        PTSUNNY   75  57  53 W16G22    29.91R
6HR MIN TEMP:  60; 6HR MAX TEMP:  76; 6HR PCP: TRACE;

LAWRENCE       PTSUNNY   76  61  59 W16       29.86S
6HR MIN TEMP:  61; 6HR MAX TEMP:  76; 6HR PCP: TRACE;

MANHATTAN      PTSUNNY   72  60  66 W13G22    29.88S
6HR MIN TEMP:  59; 6HR MAX TEMP:  74;

OLATHE IND     MOSUNNY   76  59  55 SW23G29   29.88R
6HR MIN TEMP:  60; 6HR MAX TEMP:  76;

OLATHE EXE     MOSUNNY   75  60  59 SW15G30   29.87R
6HR MIN TEMP:  61; 6HR MAX TEMP:  75;

SALINA         MOSUNNY   76  58  53 NW17      29.91S
6HR MIN TEMP:  59; 6HR MAX TEMP:  76;

TOPEKA BILLARD MOSUNNY   75  60  59 SW17G26   29.87R
6HR MIN TEMP:  61; 6HR MAX TEMP:  75; 6HR PCP: TRACE;

TOPEKA FORBES  PTSUNNY   75  59  57 W23G30    29.87R
6HR MIN TEMP:  62; 6HR MAX TEMP:  75; 6HR PCP: TRACE;

$$


USA.gov is the U.S. government's official web portal to all federal, state and local government web resources and services.